Погода в Жезказгане

Погода в Жезказгане : погода сейчас, прогноз погоды и архив. Всё, что Вы хотите узнать о погоде в Жезказгане!

Хотите узнать прогноз погоды в Жезказгане? Тогда Вам сюда: Погода в Жезказгане

Поиск расширенной информации на нашем сайте:

Другие новости

Новости СМИ2

Главная страница сайта

Новости сайта

03.07.2017

Напоминаем, что на нашем специализированном сайте Метеоцентр.Азия вы можете получить высокодетализированные автоматические прогнозы погоды по пунктам России, СНГ и мира в авиационном формате (включающие направление и скорость ветра, видимость, явления погоды, количество и форму облачности, нижнюю и верхнюю границу облачности).

Рекомендуем: Джинтропин цена подробнее.

Погода в Жезказгане - сегодня

Время (UTC), дата Ветер
(°,м/с) 
Видим.   Явления Облачность Т
(°С)
Тd
(°С)
f(%) Тe
(°С)
Pmin
(гПа)
dP
(гПа)
Po
(мм)
O2
(г/м3)
Тmin Tmax R s Состояние
почвы
21 18.09.17 360 (С) 20000 м    ясно 
+13.6 +3.5 50 +14  1020.2  735  281           
00 19.09.17 360 (С) 20000 м    ясно 
+9.4 +2.1 60 +10  1021.7  0.8  735  286           
03 19.09.17 360 (С) 20000 м    ясно 
+11.3 +2 53 +12  1022.9  1.4  736  285           
06 19.09.17 040 (СВ) 20000 м    3/0 верхняя 
[Ci fib]
+20.5 +2.1 29 +21  1023  1.3  737  276  +9.3         
09 19.09.17 010 (С) 20000 м    5/0 верхняя 
[Ci fib]
+22.8 -0.3 22 +23  1022.3  -0.3  737  274           
12 19.09.17 020 (С) 20000 м    3/0 верхняя 
[Ci fib]
+23.7 -1.6 19 +24  1021.8  -0.4  737  273           
15 19.09.17 040 (СВ) 20000 м    ясно 
+19.5 +2 31 +21  1023.7  1.3  738  277    +24.5       
18 19.09.17 090 (В) 20000 м    ясно 
+16.5 +1.8 37 +17  1025.2  738  280    +24.5       
21 19.09.17 040 (СВ) 20000 м    ясно 
+11.2 +0.7 48 +12  1026.4  0.5  739  286           
00 20.09.17 360 (С) 20000 м    ясно 
+7 -0.8 58 +8  1027.6  0.5  739  290           
03 20.09.17 360 (С) 20000 м    ясно 
+11.4 +2.4 54 +13  1027.5  0.5  740  286  +6.2        сухая 
06 20.09.17 040 (СВ) 20000 м    ясно 
+19.5 +1.6 30 +20  1026.1  -0.2  739  278  +6.2         
09 20.09.17 070 (В) 20000 м    ясно 
+23.9 +0.1 21 +24  1023.7  -1.8  738  273           
12 20.09.17 070 (В) 20000 м    ясно 
+25.5 +1.2 20 +26  1022  -1.3  737  271           
15 20.09.17 080 (В) 20000 м    ясно 
+21 +3 30 +21  1022.4  -0.2  737  275    +26.4       
18 20.09.17 090 (В) 20000 м    ясно 
+13.2 -0.2 40 +14  1023  -0.6  736  283    +26.4       
21 20.09.17 060 (СВ) 20000 м    ясно 
+10.5 +0.3 49 +11  1022.5  -0.8  736  285           
00 21.09.17 020 (С) 20000 м    ясно 
+8.8 +0.1 54 +9  1022.3  -0.5  735  287           
03 21.09.17 360 (С) 20000 м    ясно 
+13.3 +3.7 52 +15  1021.6  735  282           
06 21.09.17 тихо ()   20000 м    ясно 
+24.9 +5.2 28 +25  1019  -0.9  735  270  +8.4         
09 21.09.17 280 (З) 20000 м    ясно 
+27.8 +4.8 23 +28  1016.2  -2.3  733  267           
12 21.09.17 320 (СЗ) 20000 м    ясно 
+28.2 +3.3 20 +28  1015.1  -1  732  267           
15 21.09.17 320 (СЗ) 20000 м    ясно 
+21.3 +2.6 29 +21  1015.9  -0.2  732  273    +28.9       
18 21.09.17 340 (С) 20000 м    ясно 
+16.9 +1.6 36 +18  1015.7  -0.7  732  277    +28.9       
21 21.09.17 340 (С) 20000 м    ясно 
+16 +2.4 40 +16  1015.5  -0.4  731  278           
Время (UTC), дата Ветер
(°,м/с) 
Видим.   Явления Облачность Т
(°С)
Тd
(°С)
f(%) Тe
(°С)
Pmin
(гПа)
dP
(гПа)
Po
(мм)
O2
(г/м3)
Тmin Tmax R s Состояние
почвы

Для получения пояснительной информации подведите курсор к названию столбца.

ПОГОДА в Жезказгане - архив

Всё, что Вы хотите узнать о погоде в Жезказгане - удобно и подробно!

Выберите нужную дату (начиная с 1 января 2015* года) и нажмите кнопку "Найти".
Будут отображены архивные сводки погоды по пункту Жезказган, начиная с указанной даты.


Отображать данные в формате CSV (для использования в таблицах Excel)


Внимание! Наш архив погоды предназначен исключительно для личного некоммерческого использования в познавательных целях. Если Вам необходимы официальные справки о состоянии погоды (для производственных, юридических, коммерческих и т.п. целей), обращайтесь в органы Росгидромета.

*Примечание: данная дата относится к архиву по метеостанциям СССР (Россия, СНГ, Балтия).
Архив по метеостанциям Зарубежной Европы и Азии (кроме Китая) хранится 10 дней, по другим регионам земного шара (Китай, Африка, Америка, Австралия, Океания) - 1 день.

Жезказган - район местоположения метеостанции


Название, широта, долгота, высота метеостанции:
Жезказган 47.8°ш. 67.7°д. 346 м над ур. моря [Казахстан]

Дополнительная информация

В oтличие oт бoльшинства пoгoдных сайтoв мы публикуем пoдрoбную метеoинфoрмацию в детальнoм прoфессиoнальнoм фoрмате.

Характеристики температуры и влажнoсти вoздуха измеряются на высoте 2 м в тени вдали oт зданий и деревьев.
Скoрoсть ветра измеряется на высoте 10 м (на урoвне рoста челoвека скoрoсть ветра ниже в 1.5-2 раза). Если метеoстанция нахoдится в гoрoде или в лесу, тo скoрoсть ветра занижена на 2-4 м/с пo сравнению с oткрытым местoм. Скoрoсть ветра над акватoриями крупных рек и oзёр, а также на вершинах хoлмoв на 2-5 м/с выше, чем в oбычных услoвиях.
Атмoсфернoе давление в разных тoчках местнoсти мoжет значительнo oтличаться oт давления на метеoстанции, в зависимoсти oт услoвий рельефа (при пoдъёме на 10 м давление пoнижается примернo на 1 мм рт.ст.).